Home > Time Zones > World Clock > Weather > Macau > Macau > Past weeks

Flag for Macau Weather past 2 weeks in Macau, Macau

Now
81 °F

Passing clouds.


Feels Like: 85 °F
Forecast: 78 / 87 °F
Wind: 3 mph from Southwest

Location: Taipa

Current Time: Sep 23, 2014 at 12:42:41 AM

Latest Report: Sep 23, 2014 at 12:00 AM


Visibility: 5 mi

Pressure: 29.74 "Hg

Humidity: 74%

Dew point: 72 °F

Location of MacauLocation

Historic Weather in Macau — Graph

°F

Macau temperature yesterday

Maximum temperature yesterday: 86 °F (at 2:00 PM)
Minimum temperature yesterday: 77 °F (at 5:30 AM)
Average temperature yesterday: 81 °F

Past Weeks' High & Low Weather Summary

 TemperatureHumidityPressure
High91 °F (Sep 19, 12:00 PM)100% (Sep 17, 4:00 AM)29.92 "Hg (Sep 17, 4:00 AM)
Low77 °F (Sep 17, 3:46 AM)55% (Sep 21, 3:30 PM)29.45 "Hg (Sep 16, 3:00 AM)
Average84 °F78%29.71 "Hg
* Reported Sep 7 11:00 PM — Sep 22 11:00 PM, Macau, Weather by CustomWeather, © 2014

Note: Actual official high and low records may vary slightly from our data, if they occured in-between our weather recording intervals... More about our weather records

Advertising

Macau weather history for previous 24 hours

 ConditionsComfort  
Time TempWeatherWind HumidityBarometerVisibility
11:00 PM
Sep 22
81 °FPassing clouds.2 mph74%29.77 "HgN/A
10:30 PM81 °FPassing clouds.3 mph74%29.77 "HgN/A
10:00 PM81 °FPassing clouds.2 mph74%29.77 "HgN/A
9:30 PM81 °FPassing clouds.5 mph74%29.74 "HgN/A
9:00 PM81 °FPassing clouds.6 mph74%29.74 "HgN/A
8:30 PM81 °FPassing clouds.6 mph74%29.74 "HgN/A
8:00 PM81 °FPassing clouds.7 mph70%29.74 "HgN/A
7:30 PM81 °FPassing clouds.7 mph70%29.71 "HgN/A
7:00 PM81 °FPassing clouds.6 mph74%29.71 "HgN/A
6:30 PM82 °FClear.5 mph66%29.71 "Hg5 mi
6:00 PM82 °FClear.6 mph66%29.71 "Hg6 mi
5:30 PM84 °FClear.7 mph58%29.71 "Hg5 mi
5:00 PM84 °FPassing clouds.7 mph58%29.71 "Hg6 mi
4:30 PM84 °FPassing clouds.6 mph58%29.71 "Hg6 mi
4:00 PM84 °FPassing clouds.6 mph58%29.71 "Hg6 mi
3:30 PM86 °FPassing clouds.3 mph55%29.71 "Hg6 mi
3:00 PM86 °FPassing clouds.3 mph55%29.71 "Hg6 mi
2:30 PM84 °FPassing clouds.3 mph55%29.71 "Hg6 mi
2:00 PM86 °FPassing clouds.6 mph59%29.74 "Hg5 mi
1:30 PM84 °FPassing clouds.9 mph66%29.74 "Hg5 mi
1:00 PM84 °FPassing clouds.10 mph62%29.74 "Hg5 mi
12:30 PM82 °FPassing clouds.13 mph66%29.74 "Hg5 mi
12:00 PM82 °FPassing clouds.14 mph62%29.74 "Hg5 mi
11:30 AM82 °FClear.14 mph66%29.74 "Hg5 mi
11:00 AM82 °FClear.14 mph66%29.74 "Hg6 mi
10:30 AM81 °FClear.15 mph70%29.77 "Hg6 mi
10:00 AM82 °FClear.15 mph66%29.74 "Hg6 mi
9:30 AM81 °FClear.14 mph70%29.74 "Hg6 mi
9:00 AM81 °FClear.14 mph66%29.74 "Hg6 mi
8:00 AM81 °FSunny.14 mph66%29.74 "Hg10 mi
7:30 AM79 °FSunny.15 mph70%29.74 "Hg10 mi
7:00 AM79 °FSunny.15 mph70%29.71 "Hg10 mi
6:30 AM79 °FSunny.15 mph65%29.71 "Hg10 mi
6:00 AM79 °FPassing clouds.14 mph70%29.71 "HgN/A
5:30 AM77 °FPassing clouds.13 mph74%29.71 "HgN/A
5:00 AM79 °FPassing clouds.13 mph70%29.71 "HgN/A
4:00 AM81 °FPassing clouds.13 mph66%29.71 "HgN/A
3:30 AM79 °FPassing clouds.13 mph70%29.71 "HgN/A
3:00 AM81 °FPassing clouds.13 mph70%29.71 "HgN/A
2:00 AM79 °FPassing clouds.10 mph70%29.71 "HgN/A
1:30 AM79 °FPassing clouds.10 mph70%29.71 "HgN/A
1:00 AM79 °FPassing clouds.10 mph70%29.71 "HgN/A
12:30 AM81 °FPassing clouds.9 mph66%29.74 "HgN/A
12:00 AM81 °FPassing clouds.9 mph66%29.74 "HgN/A
Weather by CustomWeather, © 2014

See weather overviewHow to use our weather pages